Weather observations for the past three days for
McEntire Air National Guard Weather Facility Base
Imperial (Metric)
Date Time (edt) Wind (mph) Vis. (mi.) Weather Sky Cond. Temperature (ºF) Relative Humidity Wind Chill (°F) Heat Index (°F) Pressure Precipitation (in)
Air Dwpt 6 hour altimeter (in) sea level (mb) 1 hr 3 hr 6 hr
Max. Min.
17 08:55 SW 6 10.00 Mostly Cloudy BKN150 78.1 72.9 84% 81 30.01 1016.3
17 07:55 S 5 10.00 Partly Cloudy FEW070 SCT150 76.6 72.1 76.6 72.5 86% 78 30.01 1016.3
17 06:55 S 5 10.00 A Few Clouds FEW150 74.7 72.1 92% 30 1015.9
17 05:55 Calm 10.00 Fair CLR 74.1 72.1 94% 29.96 1014.6
17 04:55 Calm 10.00 Fair CLR 72.9 71.2 95% 29.94 1013.9
17 03:55 SE 3 10.00 Fair CLR 73.6 71.8 94% 29.92 1013.3
17 02:55 SE 3 10.00 Fair CLR 72.7 71.1 95% 29.92 1013.2
17 01:55 Calm 10.00 Fair CLR 74.3 70.9 80.1 73.2 89% 29.96 1014.5
17 00:55 E 3 10.00 Fair CLR 74.1 71.6 92% 29.97 1014.9
16 23:55 S 3 10.00 Overcast SCT150 OVC170 76.3 71.8 86% 77 29.98 1015.2
16 22:55 SE 3 10.00 Mostly Cloudy BKN140 76.5 72 86% 77 29.98 1015.2
16 21:55 S 5 10.00 A Few Clouds FEW150 77.7 72.1 83% 80 29.97 1014.9
16 20:55 S 8 10.00 Overcast OVC160 79.3 71.4 77% 83 29.97 1014.9
16 19:55 S 13 10.00 Mostly Cloudy BKN180 BKN250 79.9 73 96.3 77.5 80% 84 29.96 1014.6 0.06
16 18:55 S 8 10.00 Mostly Cloudy BKN170 80.8 73.2 78% 86 29.96 1014.6
16 17:55 SE 7 10.00 Overcast BKN140 OVC160 80.2 72 76% 84 29.94 1013.9
16 16:55 S 3 10.00 Mostly Cloudy FEW140 BKN180 79 72.1 80% 82 29.93 1013.6 0.06
16 15:55 SW 6 9.00 Light Rain BKN055 OVC120 77.7 72.5 84% 80 29.94 1013.9 0.06
16 14:55 W 14 G 35 10.00 Thunderstorm Light Drizzle FEW043 SCT055 BKN075 84 70.5 64% 89 29.95 1014.2
16 13:55 SW 8 10.00 Mostly Cloudy BKN055 95.2 72.3 95.7 76.5 48% 104 29.95 1014.2
16 12:55 SW 9 10.00 A Few Clouds FEW050 FEW200 93.7 72.9 51% 103 29.98 1015.2
16 11:55 SW 8 10.00 A Few Clouds FEW050 FEW200 91.8 73.8 56% 101 29.98 1015.2
16 10:55 SW 6 10.00 A Few Clouds FEW200 88.7 74.5 63% 98 29.98 1015.2
16 09:55 S 5 10.00 A Few Clouds FEW200 84.6 74.5 72% 92 30 1015.9
16 08:55 S 5 10.00 A Few Clouds FEW180 81.3 74.1 79% 87 30 1015.9
16 07:55 S 3 10.00 Partly Cloudy SCT180 76.3 73 77.5 72.7 90% 77 30 1015.9
16 06:55 S 3 10.00 Partly Cloudy SCT180 73.8 72 94% 29.99 1015.6
16 05:55 Calm 10.00 Mostly Cloudy BKN160 74.3 72.1 93% 29.98 1015.2
16 04:55 S 3 10.00 Fair CLR 73.4 71.6 94% 29.95 1014.2
16 03:55 Calm 10.00 Fair CLR 74.1 72 93% 29.94 1013.9
16 02:55 Calm 10.00 Fair CLR 74.7 72.5 93% 29.94 1013.9
16 01:55 S 5 10.00 Fair CLR 77.7 72.1 86.9 75.7 83% 80 29.94 1013.8 0.12
16 00:55 S 3 10.00 Partly Cloudy FEW160 SCT200 78.6 72.3 81% 82 29.96 1014.5
15 23:55 Calm 10.00 Fair CLR 76.8 73.9 91% 78 29.98 1015.2
15 22:55 SW 5 10.00 Fair CLR 79.3 72.9 81% 83 29.97 1014.9 0.12
15 21:55 S 6 10.00 Partly Cloudy SCT070 79.7 73.9 83% 84 29.98 1015.2 0.12
15 19:55 S 8 10.00 Mostly Cloudy SCT080 BKN100 BKN210 86.7 73 98.6 83.3 64% 94 29.95 1014.2
15 18:55 S 10 10.00 Partly Cloudy SCT075 SCT150 89.1 73.2 60% 97 29.93 1013.5
15 17:55 SE 9 10.00 Mostly Cloudy BKN160 90.9 68.9 49% 96 29.93 1013.5
15 16:55 SE 5 10.00 Mostly Cloudy SCT140 BKN200 85.1 68.5 58% 89 29.92 1013.2
15 15:55 SE 7 10.00 Mostly Cloudy BKN140 86 65.7 51% 88 29.93 1013.5
15 14:55 SW 10 10.00 Thunderstorm FEW100 SCT140 BKN190 93.9 71.8 49% 102 29.96 1014.5
15 13:55 SW 7 10.00 Partly Cloudy FEW050 SCT150 98.4 66.7 98.6 79.9 36% 103 29.97 1014.8
15 12:55 S 5 10.00 Partly Cloudy FEW050 SCT150 96.3 68.7 41% 102 30 1015.9
15 11:55 SW 5 10.00 Partly Cloudy SCT150 93.6 73.2 52% 103 30.02 1016.5
15 10:55 S 3 10.00 Partly Cloudy SCT150 89.8 73.9 60% 99 30.04 1017.2
15 09:55 SW 7 10.00 Partly Cloudy SCT160 86.7 74.8 68% 96 30.04 1017.2
15 08:55 SW 6 10.00 Partly Cloudy SCT180 83.1 73.9 74% 90 30.04 1017.3
15 07:55 S 3 10.00 Partly Cloudy SCT200 79.7 73.9 80.6 73.2 83% 84 30.03 1016.9
15 06:55 SE 3 10.00 Fair CLR 74.7 71.4 90% 30.01 1016.2
15 05:55 SE 3 10.00 Fair CLR 73.8 70.9 91% 30 1015.9
15 04:55 Calm 10.00 Fair CLR 74.5 71.1 89% 29.99 1015.5
15 03:55 SW 5 10.00 Fair CLR 79.5 70.9 75% 83 29.98 1015.2
15 02:55 Calm 10.00 Mostly Cloudy BKN150 80.4 69.6 70% 84 30 1015.9
15 01:55 SW 3 10.00 Partly Cloudy SCT150 80.4 69.3 88.7 80.4 69% 83 30.02 1016.5
15 00:55 SW 3 10.00 Overcast OVC150 81.1 70.3 70% 85 30.04 1017.2
14 23:55 S 5 10.00 Fair CLR 82.6 71.2 69% 87 30.04 1017.2
14 22:55 S 7 10.00 Partly Cloudy SCT075 83.7 72.3 69% 89 30.03 1016.9
14 21:55 SE 7 10.00 A Few Clouds FEW150 80.8 73.9 80% 86 30.03 1016.9
14 20:55 Calm 10.00 Fair CLR 84 73.9 72% 91 30.01 1016.2
14 19:55 NE 5 10.00 Fair CLR 89.1 72.9 98.4 89.1 59% 97 30 1015.9
14 18:55 S 9 10.00 Fair CLR 93.7 69.8 46% 100 29.99 1015.6
14 17:55 SE 9 10.00 Overcast OVC140 98.1 68 38% 103 29.98 1015.2
14 16:55 SW 6 10.00 Fair CLR 98.1 66.4 36% 102 30 1015.9
14 15:55 W 5 10.00 Mostly Cloudy BKN130 95.7 67.5 40% 100 30.02 1016.6
14 14:55 SW 3 10.00 Mostly Cloudy BKN130 95.4 67.1 40% 99 30.04 1017.2
14 13:55 W 3 10.00 Partly Cloudy SCT050 96.8 66.9 97.3 78.4 38% 101 30.06 1017.9
14 12:55 Calm 10.00 Fair CLR 96.1 67.8 40% 101 30.09 1018.9
14 11:55 S 3 10.00 Fair CLR 94.3 70.9 47% 101 30.1 1019.3
14 10:55 S 3 10.00 Fair CLR 90 74.7 61% 100 30.11 1019.6
14 09:55 Calm 10.00 A Few Clouds FEW130 86.2 74.7 69% 95 30.12 1020.0
Date Time (edt) Wind (mph) Vis. (mi.) Weather Sky Cond. Air Dwpt Max. Min. Relative Humidity Wind Chill (°F) Heat Index (°F) altimeter (in) sea level (mb) 1 hr 3 hr 6 hr
6 hour
Temperature (ºF) Pressure Precipitation (in)